Wind_Speed
23 22 22 22 22 21 20 20 20 21 21 21 21 21 21 21 21 20 20 20 20 20 20 20 20 20 20 20 20 20 20 20 20 20 21 21 21 21 21 21 21 21 21
24 24 23 23 23 23 22 22 21 21 22 21 22 22 22 22 21 21 21 21 21 21 21 21 21 21 22 22 22 21 21 21 21 21 22 22 22 22 23 23 22 22 22
25 25 24 24 25 24 24 24 22 22 23 23 23 23 23 23 23 23 22 22 22 22 22 22 22 22 22 22 22 22 23 23 23 22 22 23 23 23 24 24 23 23 22
26 26 25 26 26 26 25 24 24 24 23 24 24 24 24 24 23 23 23 23 23 23 22 22 22 22 22 22 23 23 23 23 24 23 23 23 23 23 23 24 24 24 23
28 27 27 26 26 26 26 25 25 25 24 25 25 25 24 23 23 23 23 23 23 23 22 22 23 22 23 23 23 23 23 23 24 24 24 24 24 23 23 23 24 24 24
28 27 28 28 27 26 25 25 24 25 25 26 25 24 24 23 23 23 23 23 23 23 23 23 23 23 23 23 24 24 23 24 24 24 24 24 23 23 23 23 23 24 25
28 28 29 28 28 27 27 26 25 24 24 25 25 24 23 23 24 24 23 24 23 23 23 23 23 23 23 23 23 23 24 25 24 24 24 24 24 24 24 24 24 24 25
29 29 29 29 29 29 29 27 27 25 25 25 24 24 23 23 23 24 24 24 24 24 23 23 23 23 23 24 23 24 24 24 25 25 24 25 25 24 25 25 25 25 25
30 29 30 30 29 29 28 26 26 26 25 25 25 25 24 24 24 24 24 24 24 25 24 24 24 23 23 24 23 23 24 25 26 26 25 25 25 25 26 26 25 25 25
29 30 30 30 29 29 29 28 28 27 26 27 27 26 25 25 25 25 25 25 24 25 25 25 24 24 24 24 24 24 25 25 26 26 26 25 26 26 26 26 25 25 25
28 28 29 29 28 28 28 29 29 28 28 28 28 27 26 26 27 26 26 26 25 25 25 25 25 25 25 25 25 25 26 26 26 26 26 26 26 27 26 25 25 25 25
28 28 27 28 28 28 29 29 29 29 29 30 29 28 28 28 27 27 28 27 26 25 26 27 27 26 26 26 26 26 26 26 26 25 25 26 27 26 25 25 26 26 26
27 28 28 28 29 29 29 30 30 30 30 31 30 29 28 28 28 29 27 27 27 27 27 27 28 28 27 27 27 27 26 25 25 25 26 26 26 26 26 26 26 26 27
26 27 28 28 29 29 29 30 30 31 31 31 30 29 29 29 29 28 28 28 28 28 28 27 28 28 28 28 28 28 28 27 27 27 27 27 27 27 27 27 27 27 27
28 28 28 29 29 29 29 30 30 31 31 30 30 30 29 29 29 28 28 29 28 28 27 27 28 28 28 29 30 29 29 29 28 28 27 27 26 26 26 27 27 27 28
28 28 28 28 28 28 28 29 29 30 30 29 29 29 30 30 30 29 29 29 28 28 28 28 29 29 30 30 30 30 30 30 29 28 28 28 28 27 27 27 27 27 27
27 27 27 27 27 28 28 28 28 28 28 28 28 29 29 29 29 29 29 29 28 28 29 29 29 29 29 30 31 31 30 30 29 29 28 28 28 28 28 28 27 27 27
26 26 26 26 26 27 27 28 28 28 27 27 28 28 28 29 28 29 29 29 29 30 30 29 29 29 29 30 31 30 30 30 30 29 29 28 28 28 28 27 27 27 27
24 24 24 25 26 27 27 28 28 27 27 27 28 28 28 28 28 29 30 30 30 30 30 31 30 30 30 31 30 30 30 30 30 29 29 28 28 28 28 28 27 27 27
23 24 24 24 24 26 27 28 28 28 27 28 28 28 29 29 29 29 29 29 30 30 29 29 29 29 29 28 28 29 29 29 28 28 28 28 28 27 28 28 28 28 28
23 24 24 24 24 25 26 26 27 27 28 28 28 29 29 29 29 29 29 29 29 29 28 28 28 27 27 27 27 27 27 27 27 27 27 27 27 27 28 28 28 28 28
23 23 23 24 25 25 26 27 27 28 28 28 29 30 30 29 29 29 28 28 27 27 27 27 27 27 27 27 26 26 26 27 27 27 27 27 28 28 28 28 28 28 28
20 21 22 23 25 25 26 26 26 26 26 27 27 28 28 28 29 28 27 27 27 27 27 27 27 27 27 27 27 26 26 27 27 28 28 29 29 30 29 29 29 28 28
19 20 21 22 24 24 25 25 25 25 25 26 26 26 26 26 26 26 26 26 26 26 26 26 26 27 27 28 28 28 28 28 28 29 29 30 30 30 29 29 29 29 29
19 20 21 22 22 23 23 24 24 24 23 23 23 24 25 25 25 25 25 25 26 26 26 26 26 27 27 28 28 28 29 29 29 29 30 30 30 29 29 29 29 29 29
18 19 20 20 20 21 22 22 22 22 23 23 23 24 24 24 24 24 24 24 25 25 26 26 26 26 27 27 28 29 29 29 29 29 29 29 29 29 29 28 28 28 29
Wind_Direction
256 258 258 261 264 264 264 265 268 270 269 269 271 274 276 278 278 279 280 281 283 285 285 287 288 286 284 284 283 283 282 281 278 276 276 277 279 279 279 280 282 281 280
257 260 260 260 261 263 264 266 267 268 269 268 269 272 274 277 279 279 279 281 283 284 285 285 286 286 284 283 283 284 284 283 281 278 277 277 278 278 279 279 280 280 281
258 261 260 259 261 263 264 265 266 266 268 267 267 270 272 275 277 278 278 280 282 283 284 284 284 285 283 283 283 284 283 283 282 280 278 277 277 277 278 278 278 279 279
258 260 259 260 262 264 263 262 264 265 266 266 267 269 271 273 274 275 277 279 280 282 282 281 283 284 284 284 283 283 283 282 281 280 279 277 276 277 278 277 277 277 278
255 257 259 261 261 263 263 263 263 262 262 263 265 268 270 271 272 273 276 277 278 281 281 281 282 282 284 285 283 283 283 282 281 280 280 278 278 279 280 279 277 276 277
255 256 257 260 260 260 262 263 263 263 263 265 266 268 269 270 271 272 274 276 278 281 283 282 282 282 284 285 283 282 282 282 280 279 280 279 279 279 280 281 278 276 277
255 255 255 258 260 261 261 262 263 264 264 266 265 267 268 269 271 273 275 276 278 280 282 282 283 282 282 284 282 280 281 281 280 279 280 280 279 278 279 280 280 279 278
255 254 254 257 258 259 260 262 263 263 265 265 264 265 267 269 272 274 275 276 278 280 282 283 282 281 282 283 282 281 281 281 281 281 280 280 279 278 279 280 280 279 280
254 254 253 255 257 258 258 261 261 260 263 264 264 265 267 270 272 274 276 276 277 278 280 283 281 281 283 284 283 282 282 283 282 283 281 280 280 279 279 279 279 278 277
254 252 252 253 255 258 260 260 260 259 260 263 264 265 267 269 271 273 275 275 276 278 280 281 281 280 281 283 283 284 284 284 283 281 280 281 281 280 279 278 278 277 278
254 254 254 253 254 255 258 260 259 259 259 261 262 264 265 267 270 272 273 275 275 276 277 279 280 280 279 280 281 282 284 284 282 281 282 282 281 282 281 278 277 278 279
251 253 253 252 253 255 257 260 260 259 258 260 261 262 264 267 270 270 274 273 273 275 277 278 278 277 278 279 280 282 283 284 283 282 283 283 282 281 281 280 280 280 280
251 252 252 252 254 256 258 260 260 259 260 261 260 262 263 266 269 272 273 272 272 275 277 277 277 277 278 279 281 282 283 284 285 285 285 284 282 281 281 281 281 281 281
253 254 254 254 255 257 258 259 260 259 260 261 260 260 262 266 269 271 271 272 273 275 276 277 278 278 279 280 281 283 283 283 283 284 285 285 283 282 281 280 280 281 281
254 256 256 255 257 258 259 260 261 262 261 262 260 259 263 267 268 269 271 273 273 274 276 277 278 278 279 279 281 282 282 282 282 283 284 285 285 283 281 280 281 281 281
256 256 256 256 257 258 260 262 264 265 263 263 262 261 263 266 267 268 271 272 273 275 275 275 276 277 278 279 280 280 281 281 281 282 283 283 283 282 282 282 284 284 283
257 258 258 258 258 259 261 263 264 264 263 262 261 262 265 266 267 268 270 271 273 275 276 275 276 277 278 278 278 279 280 281 282 281 282 282 282 282 281 282 284 285 284
259 260 259 259 260 259 261 264 265 265 263 262 263 264 265 266 268 269 270 271 272 275 275 275 276 277 279 279 278 277 277 279 280 281 280 281 280 280 281 281 282 283 283
260 260 260 261 261 261 262 265 265 266 264 262 263 264 266 268 270 272 272 272 274 275 275 276 276 277 279 280 278 277 277 278 280 279 278 279 280 279 280 281 282 283 283
261 261 262 263 262 262 263 264 265 266 265 264 264 265 267 269 271 273 273 272 273 275 276 276 276 277 278 278 278 278 278 278 279 278 277 279 281 281 281 280 281 282 283
263 263 262 261 263 263 264 265 267 267 267 267 267 267 267 270 271 272 273 273 274 274 274 275 276 276 277 278 279 280 280 279 279 278 278 278 279 280 281 281 281 282 283
264 262 262 261 263 265 266 267 269 269 269 268 268 267 266 269 272 272 272 273 274 274 275 275 274 275 276 277 279 280 280 279 278 278 278 278 279 280 281 281 281 281 282
266 264 264 264 265 267 268 270 270 271 270 268 268 266 266 269 269 270 271 272 274 274 274 274 273 274 274 275 277 279 279 278 278 278 279 278 279 280 280 280 280 280 280
273 271 270 270 269 268 269 269 269 269 268 268 268 267 267 268 269 270 271 272 273 273 274 274 274 274 274 274 275 277 278 279 280 279 279 279 279 279 279 279 279 278 278
278 277 275 274 272 270 269 270 271 268 269 269 268 269 270 269 269 270 271 272 272 273 273 275 275 276 276 277 277 278 277 278 280 281 281 280 280 280 279 279 279 278 278
280 280 279 279 275 271 269 270 271 273 273 273 272 272 270 269 269 270 271 273 275 275 276 277 278 278 279 280 280 279 279 279 279 280 280 280 280 280 279 280 280 280 279
Height
5821 5822 5824 5825 5825 5825 5825 5826 5826 5826 5827 5827 5828 5827 5827 5827 5826 5826 5826 5825 5824 5823 5823 5822 5821 5820 5819 5817 5816 5816 5815 5815 5815 5815 5814 5813 5812 5812 5812 5811 5811 5810 5810
5814 5815 5816 5818 5818 5818 5818 5819 5819 5820 5821 5821 5821 5821 5821 5821 5820 5820 5820 5819 5819 5818 5817 5816 5815 5814 5813 5812 5811 5810 5809 5809 5809 5809 5808 5807 5806 5806 5806 5805 5805 5805 5804
5807 5809 5810 5811 5811 5811 5812 5812 5812 5813 5814 5814 5815 5815 5815 5815 5814 5814 5814 5813 5813 5812 5811 5810 5809 5808 5807 5806 5805 5804 5803 5802 5802 5801 5801 5801 5800 5800 5799 5799 5799 5798 5798
5800 5801 5802 5803 5804 5804 5804 5805 5806 5806 5807 5808 5808 5808 5808 5808 5808 5808 5807 5807 5806 5806 5805 5804 5803 5802 5801 5800 5799 5797 5796 5796 5795 5794 5794 5794 5793 5793 5792 5792 5792 5792 5792
5792 5794 5795 5796 5796 5797 5797 5798 5798 5799 5800 5800 5800 5801 5801 5801 5801 5801 5801 5801 5800 5799 5798 5797 5796 5795 5794 5793 5792 5791 5790 5789 5788 5787 5787 5786 5786 5786 5786 5785 5785 5785 5785
5784 5786 5787 5788 5789 5789 5790 5790 5791 5792 5793 5793 5793 5794 5794 5794 5795 5794 5794 5794 5793 5792 5791 5790 5789 5788 5787 5786 5785 5784 5783 5782 5781 5780 5780 5779 5779 5779 5779 5778 5778 5778 5778
5776 5777 5779 5780 5781 5782 5782 5782 5783 5784 5785 5786 5787 5787 5787 5787 5788 5788 5787 5787 5786 5786 5785 5784 5783 5782 5781 5780 5778 5777 5776 5775 5774 5773 5773 5772 5772 5772 5772 5771 5770 5770 5770
5767 5769 5771 5772 5773 5774 5774 5774 5776 5777 5778 5778 5779 5780 5780 5781 5781 5781 5780 5780 5780 5779 5778 5777 5776 5775 5775 5773 5772 5771 5770 5769 5768 5767 5766 5765 5765 5765 5764 5764 5763 5763 5763
5758 5760 5762 5763 5765 5766 5766 5767 5768 5769 5770 5771 5772 5773 5773 5774 5774 5774 5773 5773 5772 5772 5771 5770 5769 5769 5768 5767 5766 5764 5763 5762 5761 5760 5759 5758 5757 5757 5757 5756 5755 5755 5755
5749 5751 5753 5754 5756 5757 5758 5760 5761 5762 5763 5764 5765 5765 5766 5767 5767 5767 5766 5766 5765 5765 5764 5763 5763 5762 5761 5760 5759 5758 5757 5755 5754 5753 5752 5751 5750 5749 5749 5748 5747 5747 5747
5740 5742 5743 5745 5747 5749 5750 5751 5752 5754 5755 5756 5757 5758 5758 5759 5759 5759 5758 5758 5758 5757 5757 5756 5755 5755 5754 5753 5752 5751 5750 5748 5747 5746 5744 5743 5742 5742 5741 5740 5740 5739 5739
5731 5733 5734 5737 5739 5740 5741 5742 5744 5745 5747 5748 5749 5750 5751 5751 5751 5751 5750 5750 5750 5750 5749 5749 5748 5747 5747 5746 5745 5744 5742 5741 5740 5738 5737 5736 5735 5734 5733 5732 5732 5731 5731
5722 5724 5726 5728 5730 5731 5733 5734 5736 5737 5738 5739 5740 5742 5743 5743 5743 5742 5742 5742 5742 5742 5741 5741 5740 5739 5739 5738 5737 5736 5735 5734 5733 5731 5730 5728 5727 5726 5725 5725 5724 5724 5723
5715 5717 5719 5720 5722 5724 5725 5726 5727 5729 5730 5731 5732 5733 5734 5735 5734 5734 5733 5733 5733 5733 5733 5732 5732 5731 5731 5730 5729 5728 5727 5726 5725 5724 5722 5721 5719 5718 5718 5717 5716 5716 5715
5707 5709 5711 5712 5714 5716 5717 5718 5719 5720 5721 5723 5724 5725 5725 5726 5727 5726 5726 5726 5725 5725 5724 5724 5723 5723 5723 5722 5721 5720 5719 5717 5716 5715 5714 5713 5711 5710 5709 5708 5708 5707 5707
5699 5701 5703 5704 5706 5707 5708 5710 5710 5712 5713 5714 5714 5716 5717 5718 5717 5717 5717 5717 5716 5716 5716 5715 5715 5714 5714 5713 5712 5711 5709 5708 5707 5706 5705 5704 5703 5702 5701 5700 5699 5698 5698
5691 5693 5695 5696 5697 5699 5700 5701 5702 5703 5703 5705 5706 5707 5707 5708 5708 5708 5708 5708 5707 5707 5707 5706 5706 5705 5705 5704 5703 5702 5701 5700 5698 5698 5697 5696 5695 5694 5693 5692 5691 5690 5689
5684 5686 5687 5688 5690 5691 5692 5693 5694 5694 5695 5696 5697 5698 5698 5698 5698 5699 5699 5699 5698 5697 5697 5697 5697 5696 5695 5694 5693 5692 5692 5691 5690 5689 5688 5687 5686 5685 5684 5684 5683 5682 5681
5677 5679 5680 5681 5682 5683 5684 5685 5686 5686 5687 5688 5689 5689 5689 5689 5689 5689 5689 5689 5688 5688 5687 5687 5687 5686 5686 5685 5684 5683 5682 5681 5680 5680 5679 5678 5677 5677 5676 5675 5674 5673 5673
5670 5671 5672 5673 5674 5675 5676 5677 5677 5678 5678 5679 5679 5680 5680 5680 5680 5680 5679 5679 5679 5678 5678 5678 5677 5677 5676 5675 5674 5674 5673 5672 5671 5670 5670 5669 5669 5668 5667 5666 5666 5665 5664
5662 5663 5664 5666 5667 5667 5668 5668 5669 5669 5669 5670 5670 5670 5671 5671 5671 5670 5670 5670 5669 5669 5668 5668 5668 5667 5667 5666 5665 5665 5664 5663 5662 5661 5661 5660 5660 5659 5659 5658 5657 5656 5655
5655 5656 5657 5658 5659 5660 5660 5660 5660 5660 5660 5660 5660 5661 5661 5661 5661 5661 5660 5660 5660 5659 5659 5659 5659 5658 5658 5657 5656 5656 5655 5654 5654 5653 5652 5652 5651 5651 5650 5649 5648 5647 5647
5648 5649 5649 5650 5651 5651 5651 5651 5651 5651 5651 5650 5651 5651 5651 5651 5651 5651 5651 5651 5651 5651 5650 5650 5650 5649 5649 5649 5648 5647 5647 5646 5645 5644 5643 5643 5642 5642 5641 5640 5639 5639 5638
5642 5642 5643 5643 5643 5643 5643 5643 5643 5643 5643 5642 5642 5642 5642 5642 5642 5642 5642 5642 5642 5642 5641 5641 5641 5641 5640 5640 5639 5638 5638 5637 5636 5635 5634 5634 5633 5632 5632 5631 5630 5630 5629
5636 5636 5636 5636 5635 5636 5636 5636 5635 5635 5635 5634 5634 5634 5634 5634 5634 5634 5634 5634 5633 5633 5633 5632 5632 5631 5631 5631 5630 5629 5628 5627 5626 5625 5625 5624 5623 5623 5622 5621 5621 5620 5619
5631 5630 5629 5629 5629 5629 5628 5628 5628 5627 5627 5627 5627 5626 5626 5626 5626 5626 5626 5626 5626 5625 5625 5624 5623 5622 5622 5621 5620 5620 5619 5618 5617 5616 5615 5614 5614 5613 5613 5612 5611 5610 5610